When you browse on this site, cookies collect data to enhance your experience and personalize the content and advertising you see.
Visit our Privacy Policy to learn more. By continuing to use the site, you agree to this use of cookies and data.
  • în România
  • Lista ţărilor
  • Pe 7 zile
  • Temperatura apei
  • Hartă satelitară
  • Meteo pe hartă
  • Widget-uri
  • user-avatar
    Intrare

    Meteo pe oră la Lesnaya

    Astăzi, 20 Martie, Miercuri

    Timp Temperatura Precipitaţii Vânt Presiune Umiditate
    00:00 +1°C° 0 mm 2 m/s 748 mmHg 91%
    01:00 -1°C° 0 mm 3 m/s 748 mmHg 91%
    02:00 -1°C° 0 mm 3 m/s 748 mmHg 92%
    03:00 -1°C° 0 mm 3 m/s 748 mmHg 92%
    04:00 -2°C° 0 mm 3 m/s 748 mmHg 93%
    05:00 -2°C° 0 mm 3 m/s 748 mmHg 93%
    06:00 -1°C° 0 mm 3 m/s 749 mmHg 90%
    07:00 -1°C° 0 mm 3 m/s 749 mmHg 87%
    08:00 -1°C° 0 mm 4 m/s 749 mmHg 84%
    09:00 0°C° 0 mm 4 m/s 749 mmHg 82%
    10:00 0°C° 0 mm 4 m/s 750 mmHg 79%
    11:00 +1°C° 0 mm 4 m/s 750 mmHg 76%
    12:00 +1°C° 0.1 mm 4 m/s 750 mmHg 76%
    13:00 +1°C° 0.1 mm 4 m/s 750 mmHg 76%
    14:00 +1°C° 0.1 mm 4 m/s 750 mmHg 76%
    15:00 +2°C° 0.1 mm 3 m/s 750 mmHg 78%
    16:00 +1°C° 0.1 mm 3 m/s 750 mmHg 80%
    17:00 +1°C° 0.1 mm 3 m/s 750 mmHg 82%
    18:00 0°C° 0 mm 3 m/s 750 mmHg 84%
    19:00 0°C° 0 mm 3 m/s 750 mmHg 85%
    20:00 -1°C° 0 mm 3 m/s 750 mmHg 86%
    21:00 -1°C° 0 mm 3 m/s 750 mmHg 86%
    22:00 -1°C° 0 mm 3 m/s 750 mmHg 86%
    23:00 -2°C° 0 mm 3 m/s 749 mmHg 86%

    Mâine, 21 Martie, Joi

    Timp Temperatura Precipitaţii Vânt Presiune Umiditate
    00:00 -1°C° 0 mm 3 m/s 749 mmHg 86%
    01:00 -1°C° 0 mm 3 m/s 748 mmHg 85%
    02:00 -1°C° 0 mm 3 m/s 747 mmHg 85%
    03:00 -1°C° 0.3 mm 3 m/s 747 mmHg 87%
    04:00 -1°C° 0.3 mm 3 m/s 746 mmHg 89%
    05:00 -1°C° 0.3 mm 3 m/s 745 mmHg 91%
    06:00 0°C° 0.2 mm 3 m/s 746 mmHg 89%
    07:00 0°C° 0.2 mm 3 m/s 746 mmHg 88%
    08:00 +1°C° 0.2 mm 3 m/s 746 mmHg 87%
    09:00 +1°C° 0.1 mm 3 m/s 746 mmHg 84%
    10:00 0°C° 0.1 mm 4 m/s 746 mmHg 81%
    11:00 +1°C° 0.1 mm 5 m/s 747 mmHg 77%
    12:00 +1°C° 0.1 mm 5 m/s 747 mmHg 76%
    13:00 +1°C° 0.1 mm 5 m/s 747 mmHg 75%
    14:00 +1°C° 0.1 mm 5 m/s 748 mmHg 74%
    15:00 +1°C° 0 mm 4 m/s 748 mmHg 77%
    16:00 +2°C° 0 mm 3 m/s 748 mmHg 80%
    17:00 +1°C° 0 mm 3 m/s 748 mmHg 84%
    18:00 +2°C° 0 mm 2 m/s 748 mmHg 87%
    19:00 +1°C° 0 mm 2 m/s 748 mmHg 90%
    20:00 +1°C° 0 mm 2 m/s 749 mmHg 93%
    21:00 -1°C° 0 mm 2 m/s 748 mmHg 93%
    22:00 -1°C° 0 mm 2 m/s 748 mmHg 94%
    23:00 -2°C° 0 mm 2 m/s 748 mmHg 94%

    Poimâine, 22 Martie, Vineri

    Timp Temperatura Precipitaţii Vânt Presiune Umiditate
    00:00 -2°C° 0 mm 2 m/s 748 mmHg 93%
    01:00 -2°C° 0 mm 2 m/s 747 mmHg 93%
    02:00 -2°C° 0 mm 2 m/s 747 mmHg 92%
    03:00 -1°C° 0.2 mm 2 m/s 747 mmHg 91%
    04:00 +1°C° 0.2 mm 2 m/s 746 mmHg 90%
    05:00 +1°C° 0.2 mm 2 m/s 745 mmHg 89%
    06:00 +1°C° 0.7 mm 3 m/s 745 mmHg 90%
    07:00 +1°C° 0.7 mm 3 m/s 745 mmHg 91%
    08:00 +2°C° 0.7 mm 3 m/s 745 mmHg 92%
    09:00 +3°C° 0.1 mm 3 m/s 745 mmHg 89%
    10:00 +4°C° 0.1 mm 4 m/s 744 mmHg 86%
    11:00 +5°C° 0.1 mm 4 m/s 744 mmHg 82%
    12:00 +5°C° 0 mm 4 m/s 745 mmHg 79%
    13:00 +5°C° 0 mm 5 m/s 745 mmHg 76%
    14:00 +4°C° 0 mm 6 m/s 745 mmHg 73%
    15:00 +5°C° 0 mm 5 m/s 745 mmHg 72%
    16:00 +4°C° 0 mm 4 m/s 745 mmHg 72%
    17:00 +3°C° 0 mm 4 m/s 745 mmHg 71%
    18:00 +1°C° 0 mm 4 m/s 746 mmHg 73%
    19:00 0°C° 0 mm 4 m/s 746 mmHg 75%
    20:00 -2°C° 0 mm 4 m/s 747 mmHg 78%
    21:00 -1°C° 0 mm 3 m/s 747 mmHg 79%
    22:00 -2°C° 0 mm 3 m/s 747 mmHg 81%
    23:00 -2°C° 0 mm 3 m/s 747 mmHg 82%

    23 Martie, Sâmbătă

    Timp Temperatura Precipitaţii Vânt Presiune Umiditate
    00:00 -4°C° 0 mm 3 m/s 748 mmHg 84%
    01:00 -3°C° 0 mm 2 m/s 748 mmHg 86%
    02:00 -4°C° 0 mm 2 m/s 748 mmHg 88%
    03:00 -4°C° 0 mm 2 m/s 748 mmHg 89%
    04:00 -4°C° 0 mm 2 m/s 748 mmHg 90%
    05:00 -2°C° 0 mm 1 m/s 748 mmHg 90%
    06:00 -1°C° 0 mm 1 m/s 748 mmHg 85%
    07:00 0°C° 0 mm 1 m/s 748 mmHg 80%
    08:00 +1°C° 0 mm 1 m/s 747 mmHg 74%
    09:00 +2°C° 0 mm 2 m/s 747 mmHg 68%
    10:00 +3°C° 0 mm 2 m/s 746 mmHg 62%
    11:00 +3°C° 0 mm 3 m/s 745 mmHg 56%
    12:00 +4°C° 0 mm 3 m/s 744 mmHg 63%
    13:00 +4°C° 0 mm 4 m/s 743 mmHg 70%
    14:00 +4°C° 0 mm 4 m/s 743 mmHg 77%
    15:00 +4°C° 0.1 mm 4 m/s 742 mmHg 81%
    16:00 +5°C° 0.1 mm 4 m/s 741 mmHg 85%
    17:00 +5°C° 0.1 mm 5 m/s 739 mmHg 89%
    18:00 +5°C° 0.1 mm 5 m/s 739 mmHg 89%
    19:00 +5°C° 0.1 mm 5 m/s 739 mmHg 89%
    20:00 +5°C° 0.1 mm 5 m/s 738 mmHg 89%
    21:00 +3°C° 0 mm 5 m/s 739 mmHg 86%
    22:00 +2°C° 0 mm 5 m/s 739 mmHg 83%
    23:00 +1°C° 0 mm 5 m/s 739 mmHg 81%

    24 Martie, Duminică

    Timp Temperatura Precipitaţii Vânt Presiune Umiditate
    00:00 0°C° 0 mm 5 m/s 739 mmHg 76%
    01:00 -1°C° 0 mm 4 m/s 739 mmHg 72%
    02:00 -2°C° 0 mm 4 m/s 740 mmHg 67%
    03:00 -2°C° 0 mm 4 m/s 739 mmHg 67%
    04:00 -2°C° 0 mm 5 m/s 739 mmHg 67%
    05:00 -2°C° 0 mm 5 m/s 738 mmHg 66%
    06:00 -3°C° 0 mm 6 m/s 738 mmHg 64%
    07:00 -2°C° 0 mm 7 m/s 738 mmHg 61%
    08:00 -2°C° 0 mm 8 m/s 737 mmHg 58%
    09:00 -1°C° 0 mm 8 m/s 737 mmHg 57%
    10:00 -1°C° 0 mm 8 m/s 737 mmHg 57%
    11:00 -1°C° 0 mm 9 m/s 737 mmHg 57%
    12:00 -1°C° 0 mm 9 m/s 737 mmHg 58%
    13:00 -1°C° 0 mm 9 m/s 737 mmHg 58%
    14:00 0°C° 0 mm 9 m/s 737 mmHg 59%
    15:00 -1°C° 0.1 mm 8 m/s 737 mmHg 58%
    16:00 -1°C° 0.1 mm 7 m/s 738 mmHg 58%
    17:00 -1°C° 0.1 mm 7 m/s 738 mmHg 57%
    18:00 -2°C° 0 mm 6 m/s 738 mmHg 59%
    19:00 -3°C° 0 mm 6 m/s 738 mmHg 62%
    20:00 -5°C° 0 mm 5 m/s 738 mmHg 64%
    21:00 -5°C° 0 mm 5 m/s 738 mmHg 65%
    22:00 -5°C° 0 mm 5 m/s 738 mmHg 66%
    23:00 -6°C° 0 mm 5 m/s 738 mmHg 67%

    25 Martie, Luni

    Timp Temperatura Precipitaţii Vânt Presiune Umiditate
    00:00 -5°C° 0 mm 4 m/s 738 mmHg 68%
    01:00 -5°C° 0 mm 4 m/s 738 mmHg 69%
    02:00 -5°C° 0 mm 4 m/s 738 mmHg 70%
    03:00 -5°C° 0 mm 3 m/s 738 mmHg 70%
    04:00 -5°C° 0 mm 3 m/s 738 mmHg 71%
    05:00 -5°C° 0 mm 3 m/s 737 mmHg 71%
    06:00 -4°C° 0 mm 3 m/s 737 mmHg 68%
    07:00 -4°C° 0 mm 3 m/s 737 mmHg 65%
    08:00 -2°C° 0 mm 3 m/s 736 mmHg 62%
    09:00 0°C° 0 mm 3 m/s 736 mmHg 59%
    10:00 +1°C° 0 mm 3 m/s 735 mmHg 56%
    11:00 +1°C° 0 mm 4 m/s 735 mmHg 53%
    12:00 +3°C° 0.1 mm 4 m/s 734 mmHg 52%
    13:00 +3°C° 0.1 mm 4 m/s 734 mmHg 51%
    14:00 +4°C° 0.1 mm 4 m/s 733 mmHg 50%
    15:00 +3°C° 0.1 mm 3 m/s 733 mmHg 55%
    16:00 +2°C° 0.1 mm 3 m/s 732 mmHg 60%
    17:00 +2°C° 0.1 mm 2 m/s 732 mmHg 65%
    18:00 +1°C° 0 mm 2 m/s 731 mmHg 70%
    19:00 -1°C° 0 mm 2 m/s 731 mmHg 75%
    20:00 -2°C° 0 mm 2 m/s 730 mmHg 80%
    21:00 -1°C° 0.2 mm 2 m/s 730 mmHg 83%
    22:00 -1°C° 0.2 mm 3 m/s 729 mmHg 86%
    23:00 -1°C° 0.2 mm 3 m/s 729 mmHg 88%
    Arată mai mult